2018-099G (43764 NORAD) Tracking and Keplerian Element Data

This shows tracking and keplerian element data for the satellite.

Feedback or suggestion? Click here.




ElementValue
Catalog43764
Name2018-099G
Epoch Orbit91
Epoch Day343.90466003
Epoch Year2018
RAAN53.0038
Inclination97.7673
Eccentricity0.0014784
Argument of Perigee247.1546
Mean Anonmoly112.8115
Mean Motion14.96096469
Decay Rate-6.2E-07
L11 43764U 18099G 18343.90466003 -.00000062 00000-0 -22545-6 0 9992
L22 43764 97.7673 53.0038 0014784 247.1546 112.8115 14.96096469 910

Live tracking and technical data element details for 2018-099G (NORAD 43764). 2018-099G can be tracked NOW for your location showing map with azimuth and elevation plus other details from your city location.

Track the satellite on the map from your city or location and see movement details for azimuth, elevation, latitude, longitude, range, height, and movement on the map or in text.







IsCatalogInMostPopularTable: catalog: 43764, numindb: 1
Update: records affected: 1



GetName: 43764 2018-099G

Hit Count: updated at: Tue, 11 Dec 2018 02:30:44 GMT